Content
SEND FEEDBACK

Daily
Averages
Monthly
Summary
China

DALIAN, CHINA


Home > Asia > China
Elevation: 318 feet     Latitude: 38 54N     Longitude: 121 38E

WEATHER
 
SELECT A DAY
Number of Records: 229,782;   Date Range: 7/1/96 - 10/19/14
 
SHARE

PRINT THIS DATA

[ ← Previous Day ]
WEATHER ALMANAC - JANUARY 23, 2013
[ Next Day → ]
[ °C ]   °F
Weather ElementAverageHighLow
Temperature27.2 °F33.8 °F (12:00 pm)17.6 °F (5:00 am)
Dewpoint22.4 °F26.6 °F (4:30 pm)15 °F (2:00 am)
Humidity81.3 %93 % (4:00 am)54 % (2:00 pm)
Barometer30.08 in30.21 in (12:30 am)29.98 in (8:30 pm)
Wind Speed8 mph15.7 mph (10:00 pm)
Weather ElementAverage
Visibility2.5 mi
Wind DirectionWSW (234.9 °)

Weather ElementTotal
Precipitation---
Heating Degree Days39.3 (Base 65)
Averaged from 55 records on January 23, 2013
WEATHER CONDITIONS BREAKOUT
WIND DIRECTION BREAKOUT
WEATHER BY HOUR - JANUARY 23, 2013
[ °C ]   °F
Local TimeTemperatureDewpointHumidityBarometerVisibilityWind DirectionWind SpeedGust SpeedPrecipitationEventsConditions
12:30 AM21.2 °F17.6 °F86 %30.21 in3.7 miNW (310°)11.2 mph
1:00 AM21.2 °F17.6 °F86 %30.21 in3.7 miNW (320°)8.9 mph
1:30 AM21.2 °F15.8 °F80 %30.21 in3.7 miNW (320°)8.9 mph
2:00 AM21.0 °F15.0 °F68 %30.21 in6.0 miNorth8.9 mphClear
2:00 AM21.2 °F17.6 °F86 %30.18 in3.7 miNW (320°)6.7 mph
2:30 AM21.2 °F17.6 °F86 %30.18 in3.7 miNW (320°)6.7 mph
3:00 AM21.2 °F17.6 °F86 %30.18 in3.7 miNW (320°)6.7 mph
3:30 AM21.2 °F17.6 °F86 %30.15 in3.7 miVariable2.2 mph
4:00 AM19.4 °F17.6 °F93 %30.15 in4.3 miWest (270°)2.2 mph
4:30 AM19.4 °F17.6 °F93 %30.15 in4.3 miWest (270°)2.2 mph
5:00 AM22.0 °F18.0 °F79 %30.15 in6.0 miSouth (180°)2.2 mphClear
5:00 AM17.6 °F15.8 °F93 %30.12 in3.1 miVariable2.2 mphMist
5:30 AM17.6 °F15.8 °F93 %30.12 in3.1 miSE (140°)2.2 mphMist
6:00 AM17.6 °F15.8 °F93 %30.12 in2.5 miEast (80°)2.2 mphMist
6:30 AM17.6 °F15.8 °F93 %30.12 in2.5 miEast (80°)2.2 mphMist
7:00 AM17.6 °F15.8 °F93 %30.12 in1.2 miCalmMist
7:30 AM17.6 °F15.8 °F93 %30.12 in1.2 miEast (100°)2.2 mphMist
8:00 AM27.0 °F22.0 °F75 %30.14 in6.0 miSW (220°)8.9 mphClear
8:00 AM21.2 °F19.4 °F93 %30.12 in1.2 miWSW (240°)4.5 mphMist
8:30 AM26.6 °F23.0 °F86 %30.12 in1.2 miWSW (240°)4.5 mphMist
9:00 AM28.4 °F24.8 °F86 %30.12 in1.2 miVariable2.2 mphMist
9:30 AM30.2 °F24.8 °F80 %30.09 in1.6 miWest (270°)6.7 mphMist
10:00 AM30.2 °F24.8 °F80 %30.09 in1.9 miWSW (250°)8.9 mphMist
10:30 AM32.0 °F24.8 °F75 %30.09 in1.9 miWest (280°)8.9 mphMist
11:00 AM32.0 °F23.0 °F59 %30.11 in6.0 miSW (220°)6.7 mphMostly Cloudy
11:00 AM32.0 °F24.8 °F75 %30.09 in2.5 miWest (260°)8.9 mphMist
11:30 AM32.0 °F24.8 °F75 %30.06 in2.5 miWest (270°)13.4 mphMist
12:00 PM33.8 °F24.8 °F70 %30.06 in2.5 miWest (260°)8.9 mphMist
12:30 PM33.8 °F24.8 °F70 %30.04 in2.5 miWest (260°)8.9 mphMist
1:00 PM33.8 °F24.8 °F70 %30.04 in2.5 miWest (270°)8.9 mphMist
1:30 PM32.0 °F24.8 °F75 %30.01 in2.5 miWest (280°)13.4 mphMist
2:00 PM33.0 °F22.0 °F54 %30.03 in6.0 miSW (220°)4.5 mphClear
2:00 PM32.0 °F23.0 °F69 %30.01 in2.5 miWest (270°)11.2 mphMist
2:30 PM33.8 °F24.8 °F70 %30.01 in2.5 miWest (270°)11.2 mphMist
3:00 PM32.0 °F23.0 °F69 %30.01 in2.5 miWest (280°)13.4 mphMist
3:30 PM32.0 °F23.0 °F69 %30.01 in1.9 miWest (270°)11.2 mphMist
4:00 PM32.0 °F24.8 °F75 %30.01 in1.9 miWest (280°)8.9 mphMist
4:30 PM32.0 °F26.6 °F80 %30.01 in0.9 miWest (260°)11.2 mphMist
5:00 PM30.0 °F24.0 °F72 %30.01 in4.0 miWSW (250°)11.2 mphMist
5:00 PM30.2 °F26.6 °F86 %30.01 in0.7 miWest (270°)8.9 mphMist
5:30 PM30.2 °F26.6 °F86 %30.01 in0.7 miWest (270°)8.9 mphMist
6:00 PM30.2 °F26.6 °F86 %30.01 in0.7 miWest (270°)8.9 mphMist
6:30 PM30.2 °F24.8 °F80 %30.01 in0.7 miWest (260°)8.9 mphMist
7:00 PM30.2 °F24.8 °F80 %30.01 in0.7 miWest (270°)11.2 mphMist
7:30 PM30.2 °F26.6 °F86 %30.01 in0.7 miWest (270°)11.2 mphMist
8:00 PM30.0 °F25.0 °F73 %30.02 in2.0 miWSW (250°)4.5 mphMist
8:00 PM30.2 °F26.6 °F86 %30.01 in0.7 miWest (280°)11.2 mphMist
8:30 PM30.2 °F26.6 °F86 %29.98 in0.7 miWest (280°)8.9 mphMist
9:00 PM30.2 °F26.6 °F86 %30.01 in0.9 miWest (280°)11.2 mphMist
9:30 PM30.2 °F26.6 °F86 %30.01 in0.9 miWNW (290°)11.2 mphMist
10:00 PM30.2 °F26.6 °F86 %30.01 in0.9 miWNW (300°)15.7 mphScattered Clouds
10:30 PM30.2 °F26.6 °F86 %30.04 in0.9 miWNW (290°)13.4 mphScattered Clouds
11:00 PM29.0 °F25.0 °F77 %30.04 in4.0 miWNW (290°)4.5 mphMist
11:00 PM28.4 °F26.6 °F93 %30.04 in0.9 miWNW (300°)13.4 mphScattered Clouds
11:30 PM28.4 °F26.6 °F93 %30.04 in0.9 miWNW (300°)13.4 mphScattered Clouds
Hourly data recorded from ZYTL, located miles away from Dalian, China







STORIES FROM OUR PARTNERS